Main page
METAR-TAF:

METAR-TAF

Airports :

Brownwood Regional Airport

Brownwood, Texas, United States

latitude: 31-48N, longitude: 098-57W, elevation: 1384 ft

Current weather observation

The report was made 22 minutes ago, at 06:15 UTC
Wind 23 mph from the Northwest with gusts up to 32 mph
Temperature 36°F
Humidity 40%
Pressure 30.14 in. Hg
Visibility: 10 miles
Broken clouds at a height of 12000 ft

METAR: KBWD 230615Z AUTO 32020G28KT 10SM BKN120 02/M10 A3014 RMK AO1

Time: 00:37 (06:37 UTC)


TAF: missing

Weather observations and forecasts of more than 4000 airports (METAR and TAF reports).

The available stations are represented by yellow and red dots on the map.

Hover mouse over dot to see the name of the station.

Then click to see weather observations and forecasts.

To change the map : click on the green buttons with a black cross to zoom in, on the green button with a dash to zoom out, or on the green arrows for adjacent maps.


METAR-TAF: